Wind_Speed
12 12 13 14 15 15 15 15 15 15 15 16 16 17 17 17 16 16 15 16 17 17 18 18 19 20 22 23 23 22 21 20 18 17 16 15 14 14 14 14 13 11 8
11 12 12 13 13 14 14 14 15 15 16 16 16 17 17 17 17 17 16 16 17 18 19 19 19 21 22 24 25 25 24 23 22 20 19 18 17 16 16 15 14 13 10
9 10 11 12 12 13 13 14 14 15 16 16 16 17 17 17 17 18 18 18 18 18 18 20 21 21 22 24 26 26 27 26 25 24 22 21 20 19 18 17 16 15 13
9 9 9 10 10 11 12 12 13 14 15 16 16 17 17 18 18 18 18 18 19 19 20 20 20 22 23 24 26 27 28 28 27 27 25 24 22 22 21 20 18 17 15
9 9 9 9 10 10 11 12 12 13 14 15 16 16 17 18 18 19 19 19 19 20 21 22 21 22 23 24 26 28 29 30 30 30 29 27 26 24 23 22 21 20 18
8 9 9 9 9 9 9 10 11 12 12 13 14 16 17 17 18 19 19 19 19 20 22 23 23 23 23 24 26 28 30 31 32 33 32 31 29 28 27 25 24 23 21
9 10 9 9 9 9 10 10 11 11 12 12 13 15 16 16 17 18 19 20 21 21 22 23 24 25 25 26 27 29 30 33 33 34 35 34 33 31 30 29 27 26 25
11 11 11 10 10 10 10 11 11 11 11 12 13 14 15 16 17 18 19 20 21 22 23 24 25 26 27 27 27 28 30 32 35 36 36 37 36 35 34 32 31 29 27
11 11 12 12 12 12 12 12 13 13 13 13 14 14 16 16 17 18 19 20 21 22 23 24 25 27 28 28 28 29 31 32 33 35 38 38 38 38 38 36 34 32 31
13 13 13 13 14 14 14 15 15 16 16 16 15 16 16 17 17 18 19 20 21 22 23 24 25 27 28 29 29 31 32 33 34 35 37 38 39 40 41 40 38 37 34
14 14 15 16 16 16 16 16 17 18 18 19 18 18 18 19 19 20 20 21 22 22 23 24 26 27 28 29 30 32 33 34 35 35 36 38 39 40 42 43 42 40 38
14 15 16 17 17 17 18 18 18 19 20 20 21 21 22 22 22 22 23 24 24 24 25 26 27 28 29 30 30 32 34 35 35 36 37 38 39 40 41 43 45 44 42
15 16 16 17 17 18 19 19 20 21 21 22 23 24 25 26 26 26 27 27 27 28 28 28 29 29 30 31 32 32 34 35 36 36 37 39 39 40 41 43 45 46 45
15 16 16 17 18 19 21 22 23 24 24 25 25 26 26 27 28 29 30 30 31 32 32 32 32 32 32 33 34 35 36 36 37 38 38 39 40 41 41 42 44 46 47
16 17 17 18 20 21 22 23 25 26 26 27 28 28 29 29 30 31 31 32 32 33 35 36 36 35 35 35 36 36 38 38 39 39 40 40 41 42 42 42 43 45 47
19 20 20 21 22 23 24 26 28 29 29 30 30 31 31 32 32 33 33 34 34 35 36 38 39 39 39 38 38 38 39 40 41 41 41 41 42 42 43 44 44 45 46
22 23 24 25 25 26 27 29 30 32 32 33 33 33 33 34 34 35 35 35 36 36 35 38 40 41 41 41 41 41 41 42 43 43 43 43 43 43 43 43 43 45 46
24 25 25 26 28 28 29 30 31 34 35 35 34 34 35 35 36 36 35 35 35 36 35 36 38 41 42 43 42 43 43 44 44 45 45 45 44 44 44 43 43 44 45
25 26 27 28 29 30 32 33 34 36 37 36 36 36 36 36 36 36 35 35 35 35 35 34 36 39 40 42 43 43 44 45 46 46 46 47 46 46 45 45 44 44 44
28 29 30 31 32 33 34 35 36 37 37 37 37 38 38 37 37 36 35 35 35 34 34 34 34 37 38 40 41 41 43 44 45 47 47 47 47 46 46 46 45 45 45
30 31 31 32 34 35 36 36 37 38 38 39 39 39 39 39 38 37 36 35 35 34 34 34 34 35 36 38 39 40 41 42 44 46 46 47 47 47 47 46 46 46 45
32 33 34 34 36 36 36 37 37 37 38 39 39 40 39 39 38 37 36 36 35 34 33 33 32 33 34 36 37 38 39 41 42 45 46 47 48 48 48 47 47 46 45
35 35 36 37 37 38 38 38 38 37 38 39 40 40 40 40 39 37 36 35 35 34 33 32 32 32 33 34 35 36 38 39 40 43 45 46 48 48 49 49 48 47 46
37 38 39 39 40 40 40 39 39 40 40 40 41 41 40 40 39 38 36 35 34 34 33 32 31 32 33 34 34 35 36 38 39 42 44 44 47 48 49 50 50 48 47
40 41 41 42 41 41 41 41 41 42 42 42 41 41 40 39 39 38 36 35 34 34 34 33 32 32 33 33 34 34 35 37 38 41 43 43 45 48 49 50 50 49 48
43 43 44 44 44 44 44 45 44 44 43 43 42 42 41 40 38 37 36 35 34 34 34 34 33 33 33 33 34 34 34 35 37 39 42 43 44 47 47 49 50 51 49
Wind_Direction
288 287 285 282 281 279 276 273 273 272 271 271 272 275 276 274 269 266 264 258 252 249 243 237 231 228 228 227 226 224 222 221 218 214 210 207 205 202 200 199 199 199 199
299 294 290 287 284 280 276 274 273 271 271 271 269 271 272 271 268 266 261 258 253 249 244 238 235 232 230 229 228 226 224 224 222 220 216 212 210 208 206 205 205 206 206
312 305 299 294 290 285 281 277 273 270 269 269 267 267 269 270 268 265 261 258 255 250 246 242 240 236 234 232 230 228 226 225 225 223 221 218 215 212 212 211 211 212 212
321 317 313 305 298 292 287 284 278 274 271 269 269 268 269 269 269 265 261 257 255 252 249 245 242 239 237 234 233 231 228 226 226 226 224 222 220 218 216 216 216 216 218
328 326 323 317 311 305 298 292 286 280 275 272 271 270 269 268 268 266 262 259 256 253 251 247 244 242 239 237 235 233 230 229 228 227 226 225 224 223 221 220 220 220 221
337 335 332 329 323 317 311 304 297 291 286 280 276 274 272 271 269 266 264 261 257 254 251 248 246 244 242 240 238 235 231 231 230 229 228 227 226 225 224 223 223 223 224
345 342 336 330 326 323 319 312 306 300 295 289 284 281 277 273 270 268 265 262 259 255 252 250 248 246 244 242 241 237 234 233 232 231 230 229 228 227 227 226 225 226 227
340 339 335 331 326 323 321 317 312 307 301 295 289 285 282 277 273 270 267 264 262 259 255 251 249 247 246 244 243 240 237 235 234 232 230 229 229 229 228 228 227 227 227
335 334 330 327 324 319 315 312 309 306 304 300 295 290 285 281 278 274 271 268 265 262 259 256 251 249 247 245 244 242 239 237 235 234 233 232 231 231 230 229 229 229 229
332 330 328 325 321 316 311 307 305 303 302 300 297 293 288 284 282 279 274 271 268 264 261 258 254 252 250 246 245 243 241 239 237 236 234 233 233 232 232 231 230 230 230
335 334 333 330 326 322 318 313 308 304 301 298 296 292 289 286 283 281 277 273 269 267 263 260 256 253 250 249 246 244 242 240 239 238 236 236 235 234 233 232 231 231 232
338 337 335 332 329 326 322 318 314 310 305 300 296 292 289 286 284 282 279 276 272 268 265 262 259 255 251 248 247 245 243 241 241 240 239 237 236 236 234 233 232 232 233
339 336 333 331 329 327 324 321 318 314 310 306 301 296 292 288 285 282 280 277 274 270 266 262 260 257 254 251 248 247 245 243 242 241 240 238 237 236 236 235 234 233 233
332 330 329 328 326 325 323 322 321 317 314 310 306 302 297 293 289 284 280 277 274 271 268 264 260 257 255 253 250 247 245 243 243 241 241 239 237 236 236 236 235 234 234
322 324 324 322 322 322 321 321 321 319 316 314 311 307 302 298 294 289 285 280 275 271 268 265 261 258 255 252 251 248 245 244 243 242 241 240 238 237 236 236 235 234 234
314 315 315 315 316 318 319 320 320 319 316 314 312 309 305 301 298 293 289 284 279 273 269 266 263 259 255 252 250 248 246 243 242 241 241 240 238 237 237 236 236 235 234
313 312 311 312 311 311 313 316 317 317 315 313 311 308 305 303 300 296 292 288 283 278 271 266 264 260 257 253 250 248 246 245 243 242 241 239 238 237 237 236 236 234 234
311 310 310 309 308 307 308 310 311 314 313 311 310 308 306 305 302 299 295 291 286 281 275 269 265 262 259 255 251 248 246 244 243 241 240 238 237 237 237 236 235 234 234
306 307 309 310 309 308 308 308 308 310 311 310 309 308 307 306 303 300 296 292 288 284 279 272 267 264 261 258 254 249 246 244 243 241 240 238 238 237 237 237 236 234 234
304 306 307 308 309 309 309 308 307 308 309 308 308 308 307 305 302 299 296 292 289 285 281 275 269 265 262 259 256 252 248 244 242 241 239 239 237 236 235 236 235 235 234
304 305 307 307 308 309 309 309 308 307 307 306 306 306 306 304 301 298 295 291 288 285 281 277 271 266 263 260 257 253 249 245 242 240 238 237 236 235 234 235 235 235 235
303 305 307 307 308 308 308 309 309 307 307 306 305 305 305 303 300 297 293 290 287 284 280 276 272 267 263 261 258 254 250 246 243 241 238 236 236 235 234 234 233 233 234
303 304 305 306 307 308 308 308 308 308 307 306 306 304 303 302 299 296 293 290 286 282 279 275 271 268 265 262 259 255 251 246 244 242 239 236 235 234 233 232 232 231 232
302 304 304 305 306 307 307 307 307 308 307 306 306 304 302 300 297 294 291 289 286 282 278 274 270 268 267 265 261 257 252 247 244 242 240 236 236 234 233 232 231 230 230
301 302 303 304 305 306 306 306 306 307 306 306 305 304 302 299 296 293 290 288 284 281 278 274 271 268 266 265 262 259 254 249 244 242 240 236 235 234 232 231 230 229 229
301 302 302 304 304 304 304 304 304 306 306 305 305 303 300 297 294 291 288 286 283 279 277 274 272 268 265 264 263 260 255 250 245 242 241 237 234 234 231 230 229 227 227
Height
5879 5878 5877 5876 5876 5875 5875 5875 5875 5875 5874 5874 5874 5873 5873 5873 5874 5875 5875 5876 5877 5878 5879 5881 5883 5885 5888 5891 5893 5896 5899 5901 5904 5906 5908 5910 5912 5914 5916 5917 5919 5921 5922
5876 5875 5874 5873 5872 5872 5872 5872 5871 5871 5871 5871 5870 5870 5870 5870 5870 5871 5872 5873 5873 5874 5875 5877 5879 5881 5883 5886 5889 5892 5895 5898 5901 5903 5906 5908 5910 5912 5914 5916 5918 5920 5921
5873 5872 5871 5870 5869 5869 5868 5868 5867 5867 5867 5867 5867 5867 5867 5867 5867 5867 5868 5869 5870 5871 5872 5873 5875 5876 5879 5881 5884 5887 5890 5893 5896 5899 5902 5905 5907 5910 5912 5914 5916 5918 5920
5871 5869 5868 5867 5866 5865 5864 5864 5863 5863 5863 5863 5863 5863 5863 5863 5863 5863 5864 5865 5866 5867 5868 5869 5870 5872 5874 5876 5879 5881 5884 5888 5891 5895 5898 5901 5904 5906 5909 5911 5914 5916 5918
5868 5867 5866 5864 5863 5862 5861 5861 5860 5859 5859 5859 5859 5859 5859 5859 5859 5859 5860 5860 5861 5862 5863 5864 5866 5867 5869 5871 5873 5876 5879 5882 5886 5889 5893 5896 5900 5903 5905 5908 5910 5913 5915
5866 5865 5863 5862 5861 5860 5859 5858 5857 5856 5856 5856 5855 5855 5855 5855 5854 5855 5855 5856 5856 5857 5858 5859 5861 5862 5864 5866 5867 5870 5872 5876 5879 5883 5887 5891 5894 5898 5901 5904 5907 5909 5912
5864 5862 5861 5860 5858 5857 5856 5855 5854 5853 5853 5852 5852 5851 5851 5851 5850 5850 5850 5851 5851 5852 5852 5854 5855 5857 5858 5860 5861 5863 5866 5869 5873 5876 5880 5884 5888 5892 5896 5899 5902 5905 5908
5862 5860 5859 5857 5856 5855 5854 5852 5851 5850 5850 5849 5848 5847 5847 5847 5846 5846 5846 5846 5846 5846 5847 5848 5849 5851 5852 5854 5856 5857 5860 5862 5866 5869 5873 5877 5881 5885 5889 5893 5896 5900 5903
5860 5858 5857 5855 5854 5852 5851 5850 5849 5847 5846 5846 5845 5844 5843 5842 5842 5842 5841 5841 5841 5841 5841 5842 5843 5844 5846 5847 5849 5851 5853 5855 5858 5862 5865 5869 5874 5878 5882 5886 5890 5894 5897
5857 5855 5854 5852 5851 5849 5848 5846 5845 5844 5842 5842 5841 5840 5839 5838 5837 5837 5837 5836 5835 5835 5835 5836 5837 5838 5839 5840 5842 5844 5846 5849 5851 5854 5857 5861 5865 5870 5874 5879 5883 5887 5891
5855 5853 5851 5849 5847 5846 5844 5843 5841 5840 5838 5837 5836 5835 5834 5833 5832 5832 5831 5831 5830 5830 5829 5830 5830 5831 5832 5833 5834 5836 5839 5841 5844 5847 5850 5853 5857 5861 5866 5870 5875 5880 5884
5852 5850 5848 5846 5844 5842 5840 5838 5837 5835 5833 5832 5830 5829 5828 5827 5826 5825 5824 5824 5823 5823 5823 5823 5823 5823 5824 5826 5827 5829 5831 5833 5836 5839 5842 5845 5848 5852 5856 5861 5866 5871 5876
5850 5848 5845 5843 5841 5839 5837 5834 5832 5830 5828 5826 5824 5822 5821 5819 5818 5817 5817 5816 5815 5815 5815 5815 5815 5815 5816 5817 5819 5821 5823 5825 5827 5830 5833 5836 5840 5843 5847 5851 5856 5861 5866
5847 5845 5843 5840 5838 5835 5832 5830 5827 5824 5822 5819 5817 5815 5813 5811 5810 5809 5808 5807 5806 5806 5805 5806 5806 5806 5807 5808 5810 5812 5814 5816 5818 5821 5824 5827 5831 5834 5838 5842 5847 5851 5857
5844 5842 5839 5836 5834 5831 5828 5825 5822 5819 5816 5813 5810 5807 5805 5802 5800 5799 5797 5797 5797 5796 5795 5794 5795 5796 5797 5799 5800 5802 5804 5806 5808 5811 5814 5817 5821 5825 5828 5833 5837 5841 5846
5840 5837 5835 5832 5829 5826 5823 5820 5816 5813 5809 5806 5803 5800 5797 5794 5791 5789 5787 5785 5785 5785 5784 5782 5783 5784 5786 5788 5789 5791 5792 5795 5798 5800 5804 5807 5811 5814 5818 5822 5827 5831 5836
5834 5832 5829 5826 5823 5820 5817 5814 5810 5806 5803 5799 5795 5792 5789 5785 5782 5779 5776 5774 5772 5772 5772 5771 5770 5771 5772 5775 5777 5779 5781 5783 5786 5789 5793 5796 5800 5804 5808 5812 5816 5821 5826
5829 5826 5823 5820 5817 5814 5810 5807 5803 5799 5795 5791 5787 5783 5780 5776 5772 5768 5765 5763 5760 5759 5759 5759 5758 5757 5759 5761 5763 5766 5769 5772 5774 5777 5781 5785 5789 5793 5797 5801 5806 5810 5815
5823 5820 5816 5813 5810 5806 5803 5799 5795 5791 5787 5783 5778 5774 5770 5766 5762 5758 5755 5752 5749 5748 5747 5747 5746 5745 5746 5747 5750 5753 5756 5759 5762 5765 5769 5773 5777 5782 5786 5791 5795 5800 5805
5816 5812 5809 5806 5802 5798 5794 5791 5787 5782 5778 5773 5769 5765 5760 5756 5752 5748 5745 5742 5739 5737 5735 5735 5734 5733 5733 5734 5736 5739 5742 5745 5749 5752 5756 5761 5765 5770 5775 5780 5785 5789 5794
5808 5805 5801 5798 5794 5790 5786 5782 5777 5773 5768 5764 5759 5755 5750 5746 5741 5738 5734 5731 5728 5726 5724 5723 5722 5722 5722 5722 5724 5726 5729 5732 5735 5738 5743 5748 5753 5758 5762 5767 5772 5777 5782
5800 5797 5793 5789 5785 5781 5777 5772 5768 5763 5758 5753 5749 5744 5740 5735 5731 5727 5724 5721 5718 5715 5713 5712 5711 5711 5710 5710 5711 5714 5716 5720 5723 5727 5730 5734 5739 5745 5749 5755 5760 5765 5771
5791 5788 5784 5780 5776 5771 5767 5762 5757 5753 5748 5743 5738 5734 5729 5724 5720 5716 5713 5710 5707 5704 5703 5702 5701 5700 5699 5699 5700 5702 5704 5707 5710 5713 5717 5722 5726 5732 5736 5742 5748 5754 5759
5782 5778 5774 5770 5765 5761 5756 5751 5747 5742 5737 5732 5727 5722 5718 5713 5709 5705 5702 5699 5696 5694 5692 5691 5691 5690 5689 5689 5689 5691 5692 5695 5698 5700 5703 5709 5713 5719 5724 5729 5735 5741 5747
5771 5767 5763 5758 5754 5749 5744 5740 5735 5731 5726 5720 5716 5711 5706 5702 5698 5694 5691 5689 5686 5683 5681 5680 5680 5679 5678 5678 5678 5679 5681 5683 5686 5688 5690 5696 5700 5704 5711 5717 5723 5729 5735
5760 5756 5751 5746 5742 5738 5733 5728 5723 5719 5714 5709 5704 5699 5694 5690 5686 5682 5680 5677 5675 5672 5671 5670 5669 5668 5667 5667 5667 5668 5669 5671 5673 5676 5678 5683 5687 5692 5699 5704 5710 5717 5723